Location: Kings Park
(40.8862°N, 73.2573°W)
Time: 05:50:29
(UTC+00:00)

Cosmos 2360 - Pass Details

Date: 29 October 2020
Orbit: 848 x 855 km, 70.8° (Epoch: 27 November)

Event Time Altitude Azimuth Distance (km) Brightness Sun altitude
Rises 22:56:25 0° 187° (S) 3,408 7.5 -12.7°
Reaches altitude 10° 22:58:55 10° 182° (S) 2,476 6.7 -13.2°
Maximum altitude 23:04:24 51° 108° (ESE) 1,069 4.4 -14.2°
Drops below altitude 10° 23:09:54 10° 34° (NE) 2,489 6.3 -15.2°
Enters shadow 23:10:47 - 32° (NNE) 2,810 6.6 -15.4°
